Fulton, NY

7:48 AM EDT on October 15, 2019 (GMT -0400)
Oswego County

Weather History for KFZY - May, 2019

Change the Weather History Date:

Thursday, May 16, 2019

  Actual Average (WUND) Record (WUND)
Temperature  
Mean Temperature 54 °F -  
Max Temperature 62 °F - - (-1)
Min Temperature 45 °F - - (-1)
Degree Days  
Heating Degree Days 12    
Growing Degree Days 4 (Base 50)    
Moisture  
Dew Point 43 °F    
Average Humidity 69    
Maximum Humidity 86    
Minimum Humidity 51    
Precipitation  
Precipitation 0.10 in - - ()
Sea Level Pressure  
Sea Level Pressure 29.88 in    
Wind  
Wind Speed 4 mph (NW)    
Max Wind Speed 14 mph    
Max Gust Speed 22 mph    
Visibility 10 miles    
Events Rain    
Averages and records for this station are not official NWS values.
T = Trace of Precipitation, MM = Missing Value Source: NWS Daily Summary

Daily Weather History Graph

Daily Weather History Graph

Search for Another Location

Airport or City:

Astronomy

May. 16, 2019 Rise Set
Actual Time 5:40 AM EDT 8:23 PM EDT
Civil Twilight 5:07 AM EDT 8:57 PM EDT
Nautical Twilight 4:26 AM EDT 9:38 PM EDT
Astronomical Twilight 3:38 AM EDT 10:26 PM EDT
Moon 5:54 PM EDT (5/16) 4:44 AM EDT (5/16)
Length of Visible Light 15h 49m
Length of Day
14h 43m
Waxing Gibbous, 94% of the Moon is Illuminated
May 16
Waxing Gibbous
May 18
Full
May 26
Last Quarter
Jun 3
New
Jun 10
First Quarter

Hourly Weather History & Observations

Time (EDT) Temp. Windchill Dew Point Humidity Pressure Visibility Wind Dir Wind Speed Gust Speed Precip Events Conditions
12:54 AM 50.0 °F - 45.0 °F 83% 29.84 in 10.0 mi Calm Calm - N/A   Overcast
1:54 AM 48.0 °F - 44.1 °F 86% 29.84 in 10.0 mi Calm Calm - N/A   Overcast
2:54 AM 48.9 °F - 45.0 °F 86% 29.84 in 10.0 mi NNW 4.6 mph - 0.03 in Rain Heavy Rain
3:54 AM 48.0 °F - 44.1 °F 86% 29.85 in 10.0 mi WSW 3.5 mph - 0.02 in   Mostly Cloudy
4:21 AM 48.0 °F - 44.1 °F 86% 29.86 in 10.0 mi NW 4.6 mph - N/A   Overcast
4:54 AM 48.0 °F - 43.0 °F 83% 29.86 in 10.0 mi North 5.8 mph - N/A   Mostly Cloudy
5:06 AM 46.9 °F - 43.0 °F 86% 29.86 in 10.0 mi North 4.6 mph - N/A   Partly Cloudy
5:54 AM 45.0 °F 43.5 °F 41.0 °F 86% 29.88 in 10.0 mi NNW 3.5 mph - N/A   Clear
6:54 AM 46.9 °F - 42.1 °F 83% 29.91 in 10.0 mi North 4.6 mph - N/A   Clear
7:54 AM 50.0 °F - 42.1 °F 74% 29.92 in 10.0 mi North 8.1 mph - N/A   Clear
8:54 AM 52.0 °F - 42.1 °F 69% 29.92 in 10.0 mi NNW 5.8 mph - N/A   Clear
9:54 AM 54.0 °F - 42.1 °F 64% 29.92 in 10.0 mi Calm Calm - N/A   Partly Cloudy
10:49 AM 55.4 °F - 42.8 °F 63% 29.92 in 10.0 mi NNW 6.9 mph - N/A   Mostly Cloudy
10:54 AM 57.9 °F - 44.1 °F 60% 29.92 in 10.0 mi West 6.9 mph - N/A   Scattered Clouds
11:05 AM 55.9 °F - 42.1 °F 60% 29.92 in 10.0 mi Variable 4.6 mph - N/A   Mostly Cloudy
11:15 AM 57.9 °F - 44.1 °F 60% 29.92 in 10.0 mi WNW 8.1 mph - N/A   Scattered Clouds
11:54 AM 55.9 °F - 41.0 °F 57% 29.94 in 10.0 mi NW 9.2 mph - N/A   Mostly Cloudy
12:54 PM 59.0 °F - 43.0 °F 55% 29.92 in 10.0 mi North - - N/A   Clear
1:54 PM 61.0 °F - 44.1 °F 54% 29.91 in 10.0 mi NW 9.2 mph - N/A   Clear
2:54 PM 62.1 °F - 45.0 °F 53% 29.90 in 10.0 mi WNW 13.8 mph 21.9 mph N/A   Clear
3:54 PM 61.0 °F - 44.1 °F 54% 29.89 in 10.0 mi NW 11.5 mph - N/A   Clear
4:54 PM 61.0 °F - 43.0 °F 52% 29.87 in 10.0 mi NW 8.1 mph - N/A   Clear
5:54 PM 60.1 °F - 42.1 °F 51% 29.86 in 10.0 mi WNW 4.6 mph - N/A   Clear
6:54 PM 57.9 °F - 42.1 °F 56% 29.85 in 10.0 mi Calm Calm - N/A   Clear
7:54 PM 57.0 °F - 42.1 °F 57% 29.85 in 10.0 mi Calm Calm - N/A   Mostly Cloudy
8:54 PM 55.0 °F - 46.0 °F 72% 29.84 in 10.0 mi Calm Calm - 0.01 in Rain Light Rain
9:54 PM 52.0 °F - 46.9 °F 83% 29.84 in 10.0 mi Calm Calm - 0.04 in   Overcast
10:54 PM 53.1 °F - 46.0 °F 77% 29.81 in 10.0 mi Variable 3.5 mph - N/A   Overcast
11:54 PM 53.1 °F - 45.0 °F 74% 29.78 in 10.0 mi Calm Calm - N/A   Overcast